Regional Weather Roundup
Issued by NWS

Home | Current Version | Previous Version | Text Only | Print | Product List | Glossary Off
Versions: 1 2 3 4 5 6 7 8 9 10 11 12 13 14 15 16 17 18 19 20 21 22 23 24 25 26 27 28 29 30 31 32 33 34 35 36 37 38 39 40 41 42 43 44 45 46 47 48 49 50

000
ASUS45 KBOI 260210
RWRID

IDAHO REGIONAL WEATHER ROUNDUP
NATIONAL WEATHER SERVICE BOISE ID
800 PM MDT WED MAY 25 2016

NOTE: "FAIR" INDICATES FEW OR NO CLOUDS BELOW 12000 FEET
WITH NO SIGNIFICANT WEATHER AND/OR OBSTRUCTIONS TO VISIBILITY

IDZ012-014-260300-
SOUTHWEST IDAHO


CITY           SKY/WX    TMP DP  RH WIND       PRES   REMARKS
BOISE          SUNNY     69  37  30 NW7       29.96S
CALDWELL       SUNNY     71  41  33 CALM      29.95F
MOUNTAIN HOME  MOSUNNY   71  42  34 NW14      29.96S
$$

IDZ016-017-260300-
SOUTHCENTRAL IDAHO


CITY           SKY/WX    TMP DP  RH WIND       PRES   REMARKS
BURLEY         PTCLDY    59  41  51 S9        30.00S
JEROME         PTCLDY    62  38  40 S8        30.01S
TWIN FALLS     CLOUDY    59  40  49 SW3       30.01S
$$

IDZ019>023-260300-
SOUTHEAST IDAHO


CITY           SKY/WX    TMP DP  RH WIND       PRES   REMARKS
IDAHO FALLS    CLOUDY    56  41  57 S6        30.02S
POCATELLO      CLOUDY    55  44  66 S10       30.02F
REXBURG        CLOUDY    53  40  61 S6        30.03S
$$

IDZ006-010-011-018-031-032-260300-
CENTRAL IDAHO MOUNTAINS


CITY           SKY/WX    TMP DP  RH WIND       PRES   REMARKS
MCCALL         SUNNY     59  31  34 N8        30.02S
HAILEY         PTCLDY    52  45  76 W5        30.05R
STANLEY          N/A     46  35  65 SE3       30.06S
SALMON         SUNNY     63  36  36 N7        29.94R
CHALLIS        PTSUNNY   64  30  27 NE3       29.98R
$$

IDZ002-004-006-007-026-260300-
NORTHERN IDAHO


CITY           SKY/WX    TMP DP  RH WIND       PRES   REMARKS
LEWISTON       PTSUNNY   74  44  34 NW6       29.96F
LOWELL           N/A     55  52  89 CALM      30.02F
COEUR D`ALENE  CLOUDY    66  46  48 S9        29.94S
MULLAN PASS    PTSUNNY   46  41  82 VRB7      30.07S
$$



USA.gov is the U.S. government's official web portal to all federal, state and local government web resources and services.